This is the latest recevied weather packets stored in our database for station/object W2SRH. If no packets are shown the sender has not sent any weather packets the latest 10 day(s).
| Time | Temp. | Humidity | Pressure | Rain* | Wind** | Luminosity | Snow |
|---|---|---|---|---|---|---|---|
| 1778067012 | 17.78° C | 70% | 1001.4 hPa | 0 mm | 0.89 m/s, 197° | - | - |
| 1778066945 | 18.33° C | 68% | 1001.3 hPa | 0 mm | 0.89 m/s, 256° | - | - |
| 1778066345 | 17.78° C | 69% | 1001.4 hPa | 0 mm | 0.45 m/s, 166° | - | - |
| 1778065744 | 17.78° C | 69% | 1001.3 hPa | 0 mm | 0.89 m/s, 230° | - | - |
| 1778065144 | 17.78° C | 70% | 1001.4 hPa | 0 mm | 0.89 m/s, 197° | - | - |
| 1778064544 | 18.33° C | 69% | 1001.2 hPa | 0 mm | 0.45 m/s, 151° | - | - |
| 1778063944 | 17.78° C | 71% | 1001.1 hPa | 0 mm | 0.45 m/s, 231° | - | - |
| 1778063345 | 17.22° C | 73% | 1001.2 hPa | 0 mm | 0.45 m/s, 212° | - | - |
| 1778062747 | 17.22° C | 73% | 1001.1 hPa | 0 mm | 0.45 m/s, 201° | - | - |
| 1778062144 | 17.22° C | 73% | 1001.2 hPa | 0 mm | 0.45 m/s, 173° | - | - |
| 1778061545 | 17.22° C | 73% | 1001.1 hPa | 0 mm | 0.45 m/s, 173° | - | - |
| 1778061260 | 17.78° C | 72% | 1001 hPa | 0 mm | 0.45 m/s, 186° | - | - |
| 1778060946 | 17.22° C | 73% | 1001.1 hPa | 0 mm | 0.45 m/s, 158° | - | - |
| 1778060345 | 17.22° C | 72% | 1001 hPa | 0 mm | 0.45 m/s, 156° | - | - |
| 1778059745 | 17.78° C | 72% | 1001 hPa | 0 mm | 0.45 m/s, 186° | - | - |
| 1778059341 | 17.78° C | 71% | 1001 hPa | 0 mm | 0.89 m/s, 206° | - | - |
| 1778059147 | 17.78° C | 72% | 1001 hPa | 0 mm | 0.45 m/s, 168° | - | - |
| 1778058545 | 17.78° C | 71% | 1001.2 hPa | 0 mm | 0.45 m/s, 177° | - | - |
| 1778057946 | 17.78° C | 71% | 1001 hPa | 0 mm | 0.89 m/s, 206° | - | - |
| 1778057345 | 17.78° C | 71% | 1001.1 hPa | 0 mm | 0.45 m/s, 215° | - | - |
| 1778056746 | 17.78° C | 71% | 1001.1 hPa | 0 mm | 0.45 m/s, 175° | - | - |
| 1778056145 | 17.78° C | 71% | 1001.2 hPa | 0 mm | 0.45 m/s, 134° | - | - |
| 1778055545 | 17.78° C | 71% | 1001.2 hPa | 0 mm | 0.45 m/s, 178° | - | - |
| 1778054945 | 17.78° C | 71% | 1001.4 hPa | 0 mm | 0.45 m/s, 202° | - | - |
| 1778054345 | 17.78° C | 71% | 1001.2 hPa | 0 mm | 0.45 m/s, 236° | - | - |
* Rain latest hour (hover to see other rain measurements)
** Current wind speed in m/s (hover to see current wind gust speed)